Wind_Speed
10 9 9 9 9 8 9 9 9 8 8 9 9 10 10 10 11 11 11 11 12 12 11 11 12 12 11 11 11 11 12 12 12 13 13 12 12 12 12 12 12 12 12
10 9 9 9 9 9 9 9 9 10 10 10 11 11 11 11 11 12 12 12 12 12 12 12 13 12 11 10 11 12 12 12 12 13 13 13 13 13 13 14 13 13 13
10 10 9 9 9 9 9 9 9 9 10 10 10 11 11 11 12 12 12 12 12 12 12 12 12 11 11 11 12 12 12 12 13 14 14 14 14 13 14 14 15 15 14
9 9 10 10 10 10 10 10 11 11 11 11 11 11 11 12 12 13 13 13 13 13 13 12 12 11 11 12 12 12 13 14 14 14 14 15 15 14 14 15 15 16 16
9 9 10 11 11 10 11 11 11 12 12 12 12 12 12 12 13 13 13 14 14 14 14 14 13 13 13 13 13 13 14 15 15 15 15 16 16 16 15 15 16 16 17
10 10 10 11 11 11 12 12 12 12 12 12 12 12 12 12 12 12 13 13 14 14 15 15 14 14 14 13 14 14 14 15 15 15 16 16 16 16 17 16 15 16 17
11 11 11 11 12 12 12 12 13 13 13 12 13 13 13 13 12 13 12 13 13 14 14 14 14 14 14 14 15 15 15 15 15 16 16 16 16 16 17 17 16 16 17
12 11 12 12 12 13 13 13 13 13 13 14 14 14 13 13 13 13 13 13 14 14 15 15 15 15 16 16 16 16 16 16 16 16 17 17 17 18 18 18 18 18 17
13 12 12 13 13 13 13 13 12 13 13 14 15 15 14 14 14 15 15 15 15 15 15 15 16 17 17 18 18 17 17 17 17 17 18 18 19 19 19 19 19 19 19
13 13 13 13 13 13 13 14 13 14 14 15 15 15 15 15 15 15 16 16 16 16 16 17 18 18 18 18 18 18 18 18 17 18 18 19 19 19 19 19 19 18 18
13 14 14 14 13 13 14 14 14 15 15 16 16 16 16 16 16 16 17 17 17 17 17 18 19 19 19 18 18 19 19 19 18 18 18 19 19 19 19 19 20 19 18
14 15 14 14 14 14 15 15 15 16 16 16 17 17 18 18 18 18 18 19 19 19 19 19 20 20 20 20 19 19 19 19 19 19 19 19 19 20 20 20 20 19 18
15 15 15 14 14 15 15 16 16 17 17 17 18 19 19 19 19 20 20 20 20 20 20 20 21 22 22 21 21 21 20 20 20 20 20 20 20 20 21 20 20 20 19
15 15 15 15 16 16 16 16 17 17 18 18 18 19 19 20 20 20 20 21 21 21 22 22 22 23 23 23 23 22 21 21 21 21 21 21 21 21 21 22 22 21 21
15 16 16 16 16 17 17 17 18 18 19 19 19 19 20 20 21 21 21 22 22 22 22 22 23 24 24 24 24 24 24 23 24 23 22 22 22 22 23 23 23 22 22
16 16 17 18 18 18 19 19 20 20 20 20 21 21 21 21 22 23 24 23 24 24 24 24 24 25 25 25 25 26 26 25 25 25 25 25 24 24 24 24 24 24 23
18 18 18 18 19 19 20 20 21 21 21 22 22 22 23 23 24 24 24 24 24 25 25 25 25 26 26 27 26 26 26 26 26 25 25 26 25 25 25 25 25 25 25
20 20 20 20 21 21 21 22 22 22 23 23 23 24 25 25 25 25 26 25 25 26 26 26 26 27 28 28 27 27 27 27 27 26 27 27 27 26 25 25 25 26 26
21 22 22 22 22 22 23 23 23 23 23 24 24 24 25 25 25 26 26 26 26 27 28 27 27 27 28 29 29 28 28 28 28 28 27 27 27 27 27 26 26 26 27
22 23 23 23 23 24 24 24 24 24 24 25 25 25 25 25 25 26 27 27 28 28 28 28 28 28 28 29 29 29 29 29 29 29 29 29 29 29 28 28 28 28 28
24 24 24 24 24 25 25 25 25 26 26 26 26 26 26 25 26 27 28 28 29 29 29 29 29 28 29 29 30 30 30 30 30 30 30 30 30 30 29 30 30 30 30
25 25 25 25 25 25 25 26 26 26 26 27 27 27 27 27 27 28 28 28 29 29 30 30 30 30 31 31 31 31 31 31 31 31 31 31 31 31 31 31 31 30 30
25 25 26 25 26 26 27 27 27 27 27 27 28 28 28 28 28 29 29 29 29 30 30 30 30 30 30 31 31 31 31 31 32 32 32 32 32 32 32 32 32 31 31
26 26 26 26 26 26 27 28 28 27 27 28 28 29 30 30 30 30 29 29 30 30 30 30 30 30 30 30 31 31 32 32 32 33 33 32 32 33 33 34 33 33 32
26 27 27 27 27 27 28 28 28 29 29 29 29 29 30 30 30 30 30 30 30 30 31 30 30 30 31 31 32 32 32 33 32 32 32 32 33 33 33 33 33 33 33
27 27 28 28 28 28 28 29 29 29 29 29 30 30 30 31 31 31 31 30 30 30 31 31 30 31 31 32 32 32 32 32 32 31 31 32 32 33 33 33 33 34 34
Wind_Direction
272 267 267 267 262 257 252 251 246 249 248 249 250 252 249 244 243 245 250 254 257 259 261 262 263 266 263 260 260 253 253 256 256 259 259 257 257 259 260 260 258 257 261
270 269 269 264 262 258 253 250 249 251 254 256 254 253 253 254 255 252 252 253 257 258 261 264 265 267 263 258 260 262 257 257 257 257 259 258 260 260 261 261 260 259 261
270 266 264 265 264 262 258 252 252 254 256 256 255 255 257 257 257 257 256 256 258 259 261 265 267 270 265 263 262 261 256 256 257 259 260 259 261 263 266 266 266 264 263
269 267 265 269 270 265 261 258 256 256 258 259 258 259 260 257 255 257 258 258 258 259 259 261 265 269 269 266 265 261 259 258 258 259 260 260 260 262 264 266 266 263 263
269 268 268 270 272 267 262 260 260 259 261 262 260 260 261 259 258 257 257 257 257 257 258 260 263 268 270 267 267 264 262 261 261 259 260 262 262 262 264 267 266 263 263
267 268 268 270 269 266 264 266 266 263 262 261 259 260 262 260 259 259 257 258 259 260 261 263 263 264 268 268 269 267 264 261 260 260 262 263 263 263 264 267 268 264 262
268 269 270 272 273 270 267 268 267 262 259 259 260 261 261 260 261 258 258 259 261 261 262 262 263 263 265 268 269 267 266 265 263 262 262 263 263 262 264 268 270 267 263
268 267 268 273 275 274 273 273 268 263 260 259 260 262 261 260 262 263 262 262 261 261 263 263 263 265 267 270 271 269 269 266 263 262 264 263 264 263 264 268 271 269 265
265 268 267 271 273 275 273 271 268 269 265 261 262 262 260 258 258 262 262 263 263 262 262 264 266 267 269 270 272 271 269 268 263 261 264 265 266 266 264 266 268 266 264
270 270 270 271 272 272 270 270 269 269 268 266 265 263 262 261 262 263 263 263 264 264 265 266 267 267 269 271 271 271 271 269 266 264 264 265 265 265 264 263 266 268 266
272 272 275 272 272 270 270 271 269 268 268 267 265 264 262 263 264 265 265 266 266 266 267 266 266 266 267 269 270 270 270 268 268 268 267 265 263 263 263 262 263 265 264
271 272 272 272 271 271 272 271 271 269 268 268 267 265 263 264 265 266 266 265 267 268 268 268 267 267 267 267 267 268 268 268 269 269 268 268 267 264 265 264 263 262 262
272 272 272 272 271 271 272 271 271 269 268 269 267 266 265 265 266 267 266 266 268 268 268 269 268 267 266 265 266 268 268 268 267 266 267 268 268 266 265 265 264 262 262
273 272 271 270 270 272 272 271 270 270 270 270 269 268 267 266 266 268 268 268 269 270 270 270 270 269 267 266 266 268 268 268 266 266 267 269 268 267 266 265 263 262 264
273 272 271 272 271 272 274 272 271 272 273 273 272 271 271 269 267 267 269 269 268 268 269 271 270 268 267 266 267 268 269 268 268 267 267 267 267 266 266 266 264 262 264
272 273 274 275 276 276 276 275 273 273 273 273 272 273 272 270 269 268 270 271 270 269 269 270 269 268 267 267 268 268 268 269 268 268 268 267 268 268 267 266 266 264 265
275 276 276 277 277 278 278 277 276 274 273 273 272 272 273 272 271 271 271 270 271 271 270 270 269 267 266 267 268 268 270 270 270 270 268 266 266 268 268 267 267 267 265
276 277 276 278 278 279 279 278 276 276 276 275 274 274 274 274 272 272 272 270 271 272 272 272 271 269 266 267 268 268 269 271 270 269 268 266 265 266 268 268 267 266 264
277 277 277 278 280 280 280 279 277 277 277 277 276 275 275 275 273 273 274 272 272 274 274 274 273 270 267 267 267 267 268 268 268 268 268 267 267 266 267 267 266 265 265
277 277 279 281 281 281 281 280 278 276 276 277 276 276 274 274 274 274 274 274 274 275 275 274 273 271 269 268 267 267 268 268 269 268 267 268 268 266 267 269 266 264 264
278 279 280 281 282 283 282 282 280 278 276 276 276 276 274 274 275 275 275 274 275 276 276 274 273 271 269 268 269 269 269 268 268 268 268 269 268 267 267 268 267 264 263
279 279 280 281 282 282 283 283 282 281 278 277 277 277 276 275 276 277 277 276 276 276 276 274 273 272 270 269 269 270 271 270 268 269 269 269 267 266 266 268 267 265 264
279 279 280 280 281 281 282 283 283 281 279 278 278 278 277 277 277 278 278 277 276 277 276 276 274 273 271 271 270 271 272 271 270 270 268 267 265 265 266 266 267 265 265
279 280 280 280 280 281 282 282 282 281 280 280 280 279 278 277 277 277 277 279 279 279 278 278 276 275 273 272 271 272 272 272 272 271 270 268 266 265 266 266 266 264 264
279 280 280 280 281 282 282 282 282 280 280 281 280 279 279 279 278 278 278 279 279 279 278 277 277 276 275 273 273 273 272 272 272 272 271 269 267 266 265 266 265 264 263
279 279 280 281 281 281 282 282 282 281 281 281 280 279 279 279 278 278 277 277 277 277 277 277 276 277 277 275 275 274 273 271 270 271 270 269 268 266 266 266 266 266 263
Height
5857 5856 5856 5855 5855 5855 5855 5855 5855 5856 5856 5856 5856 5857 5857 5857 5857 5857 5857 5858 5858 5858 5858 5858 5857 5857 5857 5857 5857 5858 5858 5859 5859 5859 5859 5860 5860 5860 5860 5861 5861 5861 5861
5854 5854 5854 5853 5853 5853 5853 5853 5854 5854 5854 5854 5854 5854 5855 5855 5855 5855 5855 5855 5855 5855 5855 5855 5855 5855 5854 5855 5855 5856 5856 5856 5856 5856 5857 5857 5857 5857 5858 5858 5858 5858 5858
5851 5851 5851 5851 5851 5851 5851 5851 5851 5852 5852 5852 5852 5852 5852 5852 5852 5852 5852 5852 5852 5852 5853 5853 5852 5852 5852 5852 5853 5853 5853 5853 5854 5854 5854 5854 5854 5854 5855 5855 5855 5855 5856
5849 5849 5849 5849 5849 5849 5849 5849 5849 5849 5849 5850 5850 5850 5850 5849 5849 5849 5849 5849 5850 5850 5850 5850 5850 5850 5850 5850 5850 5850 5850 5851 5851 5851 5851 5851 5852 5852 5852 5852 5852 5852 5852
5846 5846 5846 5846 5846 5846 5846 5846 5846 5846 5847 5847 5847 5847 5847 5847 5847 5846 5846 5846 5847 5847 5847 5847 5848 5847 5847 5847 5847 5847 5847 5847 5847 5848 5848 5848 5848 5848 5849 5849 5848 5848 5848
5844 5844 5844 5844 5844 5844 5844 5843 5843 5843 5844 5844 5844 5844 5844 5844 5844 5844 5843 5844 5844 5844 5844 5844 5844 5845 5844 5844 5844 5844 5844 5844 5844 5844 5845 5845 5845 5845 5845 5845 5845 5845 5845
5841 5841 5841 5841 5841 5841 5841 5841 5840 5840 5841 5841 5841 5841 5841 5841 5841 5841 5841 5841 5841 5841 5841 5841 5841 5841 5841 5841 5841 5840 5840 5840 5840 5841 5841 5841 5841 5842 5842 5842 5842 5841 5841
5838 5838 5838 5838 5838 5838 5837 5837 5837 5837 5837 5838 5838 5838 5838 5839 5838 5838 5838 5838 5838 5838 5838 5837 5837 5838 5837 5837 5837 5837 5836 5836 5836 5836 5836 5837 5837 5838 5838 5838 5838 5838 5837
5835 5834 5835 5835 5834 5834 5834 5834 5834 5834 5834 5834 5834 5835 5835 5835 5835 5835 5834 5834 5834 5834 5834 5834 5834 5834 5834 5833 5833 5833 5832 5832 5832 5832 5832 5832 5833 5833 5833 5834 5834 5834 5834
5831 5831 5831 5831 5831 5831 5831 5831 5830 5830 5831 5831 5831 5831 5831 5831 5831 5831 5831 5831 5831 5830 5830 5830 5830 5830 5829 5829 5828 5828 5828 5828 5828 5828 5828 5828 5828 5828 5828 5829 5829 5829 5829
5828 5828 5828 5827 5827 5827 5827 5827 5827 5827 5827 5827 5827 5827 5827 5827 5827 5827 5827 5827 5826 5826 5826 5826 5825 5825 5825 5824 5824 5823 5823 5823 5823 5823 5823 5823 5823 5823 5824 5824 5824 5825 5825
5825 5824 5824 5824 5824 5823 5823 5823 5823 5823 5823 5823 5823 5823 5823 5823 5823 5822 5822 5822 5822 5821 5821 5821 5821 5820 5820 5819 5819 5818 5818 5818 5818 5818 5818 5817 5817 5818 5818 5819 5819 5819 5820
5821 5821 5820 5820 5820 5820 5819 5819 5819 5819 5819 5819 5818 5818 5818 5818 5818 5817 5817 5817 5817 5816 5816 5815 5815 5815 5814 5814 5814 5813 5813 5813 5813 5813 5813 5812 5812 5812 5813 5813 5813 5814 5814
5817 5817 5816 5816 5816 5815 5815 5815 5814 5814 5814 5814 5813 5813 5813 5813 5813 5812 5812 5812 5811 5811 5810 5810 5809 5809 5808 5808 5808 5808 5808 5808 5808 5807 5807 5807 5807 5807 5807 5807 5808 5808 5809
5813 5813 5812 5812 5811 5811 5810 5810 5810 5809 5809 5808 5808 5808 5808 5807 5807 5807 5806 5806 5806 5805 5805 5804 5803 5802 5802 5802 5802 5802 5802 5802 5802 5801 5801 5801 5801 5801 5801 5801 5802 5802 5802
5809 5809 5808 5807 5807 5806 5805 5805 5804 5804 5803 5803 5802 5802 5802 5801 5801 5800 5800 5800 5799 5799 5798 5798 5797 5796 5795 5795 5795 5795 5795 5795 5795 5795 5794 5794 5794 5794 5795 5795 5795 5795 5796
5804 5804 5803 5802 5802 5801 5800 5799 5798 5798 5797 5797 5796 5796 5795 5795 5794 5794 5793 5793 5792 5791 5791 5790 5790 5789 5789 5789 5789 5788 5788 5788 5788 5788 5787 5787 5787 5787 5788 5788 5788 5788 5789
5799 5798 5798 5797 5796 5795 5794 5793 5792 5792 5791 5790 5790 5789 5788 5787 5787 5786 5786 5785 5785 5784 5784 5783 5782 5782 5782 5781 5781 5781 5781 5781 5780 5780 5780 5780 5780 5780 5780 5780 5780 5781 5781
5793 5793 5792 5791 5790 5789 5788 5787 5786 5785 5784 5783 5782 5781 5780 5779 5779 5779 5778 5778 5777 5777 5776 5775 5774 5774 5773 5773 5773 5773 5773 5773 5772 5772 5772 5772 5772 5772 5773 5773 5773 5773 5774
5787 5787 5786 5785 5784 5783 5782 5781 5779 5778 5777 5776 5775 5774 5773 5772 5772 5771 5770 5770 5769 5768 5768 5767 5766 5765 5765 5765 5765 5765 5764 5764 5764 5764 5764 5764 5764 5764 5765 5765 5765 5765 5766
5781 5780 5779 5778 5777 5776 5775 5773 5772 5771 5769 5768 5767 5766 5765 5765 5764 5763 5762 5762 5761 5760 5759 5758 5757 5757 5756 5756 5756 5756 5756 5755 5755 5755 5755 5755 5755 5756 5756 5756 5756 5757 5757
5774 5773 5772 5771 5770 5769 5767 5766 5764 5763 5762 5761 5760 5759 5758 5757 5756 5755 5754 5753 5752 5751 5750 5750 5749 5748 5748 5747 5747 5746 5746 5746 5747 5747 5746 5746 5746 5746 5747 5747 5747 5748 5748
5766 5765 5764 5763 5762 5761 5759 5758 5756 5755 5754 5753 5751 5750 5749 5748 5747 5746 5745 5744 5743 5742 5741 5740 5740 5739 5738 5738 5738 5737 5737 5737 5737 5736 5736 5736 5736 5736 5737 5737 5738 5738 5739
5759 5758 5756 5755 5754 5753 5751 5750 5748 5746 5745 5744 5743 5742 5740 5739 5738 5737 5736 5735 5734 5733 5732 5731 5730 5729 5729 5728 5727 5727 5727 5726 5726 5726 5725 5726 5726 5727 5727 5727 5728 5729 5729
5751 5749 5748 5747 5745 5744 5742 5741 5739 5738 5737 5735 5734 5732 5731 5730 5729 5727 5726 5725 5724 5723 5722 5721 5720 5719 5719 5718 5717 5717 5716 5716 5716 5716 5715 5715 5716 5716 5717 5717 5717 5718 5719
5742 5741 5739 5738 5737 5735 5734 5732 5730 5729 5727 5726 5725 5723 5722 5720 5719 5717 5716 5715 5714 5713 5712 5711 5710 5709 5708 5707 5707 5706 5706 5705 5705 5705 5705 5705 5705 5705 5707 5707 5707 5708 5708